| time (UTC) | temp F | wind direction | speed MPH | gust MPH | rain 1hr in | rain 24hr in | rain mn in | humidity % | barometer mb |
| 20260508033036 | 53 | 86 | 0.0 | 4.0 | 0.00 | 0.06 | 0.06 | 68 | 1012.3 |
| 20260508031538 | 53 | 5 | 0.0 | 0.0 | 0.00 | 0.06 | 0.06 | 68 | 1012.1 |
| 20260508030036 | 53 | 13 | 0.0 | 0.0 | 0.00 | 0.06 | 0.06 | 68 | 1012.0 |
| 20260508024534 | 52 | 157 | 0.0 | 5.0 | 0.00 | 0.06 | 0.06 | 74 | 1011.8 |
| 20260508023032 | 52 | 75 | 0.0 | 1.0 | 0.00 | 0.06 | 0.06 | 74 | 1011.6 |
| 20260508021528 | 53 | 173 | 0.0 | 0.0 | 0.00 | 0.06 | 0.06 | 74 | 1011.2 |
| 20260508020031 | 53 | 231 | 0.0 | 0.0 | 0.00 | 0.06 | 0.06 | 68 | 1011.0 |
| 20260508014523 | 52 | 115 | 0.0 | 0.0 | 0.00 | 0.06 | 0.06 | 73 | 1010.9 |
| 20260508013021 | 52 | 71 | 0.0 | 0.0 | 0.00 | 0.06 | 0.06 | 74 | 1010.7 |
| 20260508011518 | 53 | 71 | 0.0 | 0.0 | 0.00 | 0.06 | 0.06 | 73 | 1010.4 |
| 20260508010016 | 53 | 71 | 0.0 | 0.0 | 0.00 | 0.06 | 0.06 | 74 | 1010.1 |
| 20260508004512 | 54 | 71 | 0.0 | 0.0 | 0.00 | 0.06 | 0.06 | 72 | 1010.0 |
| 20260508003010 | 55 | 19 | 0.0 | 0.0 | 0.00 | 0.06 | 0.06 | 72 | 1009.9 |
| 20260508001510 | 57 | 18 | 0.0 | 0.0 | 0.00 | 0.06 | 0.06 | 72 | 1009.8 |
| 20260508000010 | 59 | 344 | 0.0 | 0.0 | 0.00 | 0.06 | 0.06 | 68 | 1009.6 |
| 20260507234509 | 61 | 344 | 0.0 | 0.0 | 0.00 | 0.06 | 0.06 | 59 | 1009.3 |
| 20260507233022 | 62 | 315 | 0.0 | 0.0 | 0.00 | 0.06 | 0.06 | 60 | 1008.9 |
| 20260507231507 | 62 | 335 | 0.0 | 2.0 | 0.00 | 0.06 | 0.06 | 58 | 1008.7 |
| 20260507230006 | 62 | 195 | 0.0 | 1.0 | 0.00 | 0.06 | 0.06 | 59 | 1008.4 |
| 20260507224506 | 63 | 200 | 0.0 | 2.0 | 0.00 | 0.06 | 0.06 | 61 | 1008.3 |
| 20260507223005 | 63 | 261 | 0.0 | 1.0 | 0.00 | 0.06 | 0.06 | 59 | 1008.2 |
| 20260507221504 | 63 | 263 | 0.0 | 1.0 | 0.00 | 0.06 | 0.06 | 60 | 1008.1 |
| 20260507220003 | 63 | 241 | 0.0 | 1.0 | 0.00 | 0.06 | 0.06 | 70 | 1007.8 |
| 20260507214501 | 62 | 238 | 0.0 | 0.0 | 0.00 | 0.06 | 0.06 | 76 | 1007.8 |
| 20260507213003 | 60 | 151 | 0.0 | 0.0 | 0.00 | 0.06 | 0.06 | 81 | 1007.8 |
| 20260507211501 | 61 | 225 | 0.0 | 0.0 | 0.00 | 0.06 | 0.06 | 77 | 1007.9 |
| 20260507210104 | 63 | 261 | 0.0 | 0.0 | 0.00 | 0.06 | 0.06 | 78 | 1007.7 |
| 20260507204558 | 62 | 213 | 0.0 | 1.0 | 0.00 | 0.06 | 0.06 | 80 | 1007.5 |
| 20260507203056 | 61 | 165 | 0.0 | 1.0 | 0.00 | 0.06 | 0.06 | 83 | 1007.7 |
| 20260507201555 | 60 | 230 | 0.0 | 0.0 | 0.00 | 0.06 | 0.06 | 86 | 1007.8 |
| 20260507200054 | 58 | 144 | 0.0 | 1.0 | 0.00 | 0.06 | 0.06 | 87 | 1008.1 |
| 20260507194616 | 58 | 201 | 0.0 | 0.0 | 0.01 | 0.06 | 0.06 | 89 | 1008.4 |
| 20260507193049 | 57 | 217 | 0.0 | 0.0 | 0.02 | 0.06 | 0.06 | 89 | 1008.6 |
| 20260507191550 | 57 | 223 | 0.0 | 0.0 | 0.02 | 0.06 | 0.06 | 91 | 1008.9 |
| 20260507190052 | 55 | 188 | 0.0 | 0.0 | 0.02 | 0.06 | 0.06 | 91 | 1009.1 |
| 20260507184545 | 55 | 157 | 0.0 | 0.0 | 0.01 | 0.05 | 0.05 | 90 | 1009.3 |
| 20260507183047 | 56 | 157 | 0.0 | 0.0 | 0.00 | 0.04 | 0.04 | 91 | 1009.3 |
| 20260507181552 | 56 | 157 | 0.0 | 0.0 | 0.00 | 0.04 | 0.04 | 91 | 1009.2 |
| 20260507180044 | 56 | 38 | 0.0 | 0.0 | 0.02 | 0.04 | 0.04 | 91 | 1009.4 |
| 20260507174554 | 55 | 267 | 0.0 | 0.0 | 0.02 | 0.04 | 0.04 | 90 | 1009.2 |
| 20260507173113 | 55 | 266 | 0.0 | 0.0 | 0.02 | 0.04 | 0.04 | 91 | 1009.3 |
| 20260507171547 | 55 | 298 | 0.0 | 0.0 | 0.02 | 0.04 | 0.04 | 91 | 1009.5 |
| 20260507170041 | 55 | 298 | 0.0 | 0.0 | 0.02 | 0.02 | 0.02 | 90 | 1009.7 |
| 20260507164547 | 56 | 298 | 0.0 | 0.0 | 0.02 | 0.02 | 0.02 | 89 | 1009.5 |
| 20260507163038 | 56 | 26 | 0.0 | 0.0 | 0.02 | 0.02 | 0.02 | 88 | 1009.7 |
| 20260507161553 | 56 | 11 | 0.0 | 1.0 | 0.02 | 0.02 | 0.02 | 87 | 1009.6 |
| 20260507160039 | 57 | 315 | 0.0 | 0.0 | 0.00 | 0.00 | 0.00 | 83 | 1009.9 |
| 20260507154535 | 57 | 5 | 0.0 | 1.0 | 0.00 | 0.00 | 0.00 | 84 | 1010.0 |
| 20260507153033 | 57 | 281 | 0.0 | 0.0 | 0.00 | 0.00 | 0.00 | 84 | 1010.0 |
| 20260507151533 | 57 | 338 | 0.0 | 0.0 | 0.00 | 0.00 | 0.00 | 84 | 1010.0 |
| 20260507150032 | 57 | 302 | 0.0 | 0.0 | 0.00 | 0.00 | 0.00 | 84 | 1009.9 |
| 20260507144534 | 57 | 15 | 0.0 | 0.0 | 0.00 | 0.00 | 0.00 | 82 | 1009.9 |
| 20260507143028 | 58 | 267 | 0.0 | 0.0 | 0.00 | 0.00 | 0.00 | 83 | 1009.7 |
| 20260507141528 | 58 | 190 | 0.0 | 0.0 | 0.00 | 0.00 | 0.00 | 82 | 1009.7 |
| 20260507140027 | 58 | 246 | 0.0 | 0.0 | 0.00 | 0.00 | 0.00 | 82 | 1009.9 |
| 20260507134526 | 59 | 321 | 0.0 | 0.0 | 0.00 | 0.00 | 0.00 | 82 | 1010.0 |
| 20260507133028 | 59 | 327 | 0.0 | 0.0 | 0.00 | 0.00 | 0.00 | 82 | 1010.1 |
| 20260507131530 | 59 | 335 | 0.0 | 0.0 | 0.00 | 0.00 | 0.00 | 81 | 1010.2 |
| 20260507130026 | 59 | 237 | 0.0 | 0.0 | 0.00 | 0.00 | 0.00 | 84 | 1009.8 |
| 20260507124521 | 59 | 52 | 0.0 | 0.0 | 0.00 | 0.00 | 0.00 | 85 | 1010.0 |
| 20260507123021 | 59 | 309 | 0.0 | 0.0 | 0.00 | 0.00 | 0.00 | 85 | 1010.0 |
| 20260507121520 | 59 | 304 | 0.0 | 0.0 | 0.00 | 0.00 | 0.00 | 84 | 1010.1 |
| 20260507120036 | 59 | 314 | 0.0 | 0.0 | 0.00 | 0.00 | 0.00 | 86 | 1010.1 |
| 20260507114517 | 58 | 328 | 0.0 | 0.0 | 0.00 | 0.06 | 0.00 | 87 | 1010.0 |
| 20260507113034 | 58 | 286 | 0.0 | 0.0 | 0.00 | 0.06 | 0.00 | 88 | 1009.7 |
| 20260507111514 | 58 | 355 | 0.0 | 0.0 | 0.00 | 0.06 | 0.00 | 87 | 1009.5 |
| 20260507110012 | 58 | 348 | 0.0 | 0.0 | 0.00 | 0.06 | 0.00 | 86 | 1009.4 |
| 20260507104514 | 58 | 348 | 0.0 | 0.0 | 0.00 | 0.06 | 0.00 | 86 | 1009.3 |
| 20260507103008 | 58 | 348 | 0.0 | 0.0 | 0.00 | 0.06 | 0.00 | 86 | 1009.0 |
| 20260507101507 | 59 | 360 | 0.0 | 0.0 | 0.00 | 0.06 | 0.00 | 85 | 1008.9 |
| 20260507100005 | 59 | 34 | 0.0 | 0.0 | 0.00 | 0.06 | 0.00 | 86 | 1009.2 |
| 20260507094503 | 59 | 34 | 0.0 | 0.0 | 0.00 | 0.06 | 0.00 | 85 | 1009.2 |
| 20260507093002 | 59 | 35 | 0.0 | 0.0 | 0.00 | 0.06 | 0.00 | 84 | 1009.4 |
| 20260507091501 | 59 | 346 | 0.0 | 0.0 | 0.00 | 0.06 | 0.00 | 86 | 1008.9 |
| 20260507090100 | 60 | 11 | 0.0 | 0.0 | 0.00 | 0.06 | 0.00 | 88 | 1008.3 |
| 20260507084603 | 60 | 15 | 0.0 | 0.0 | 0.00 | 0.06 | 0.00 | 90 | 1009.0 |
| 20260507083057 | 60 | 36 | 0.0 | 0.0 | 0.00 | 0.06 | 0.00 | 89 | 1009.0 |
| 20260507081555 | 61 | 60 | 0.0 | 0.0 | 0.00 | 0.06 | 0.00 | 89 | 1008.9 |
| 20260507080054 | 61 | 61 | 0.0 | 0.0 | 0.00 | 0.06 | 0.00 | 88 | 1008.7 |
| 20260507074553 | 61 | 5 | 0.0 | 0.0 | 0.00 | 0.06 | 0.00 | 89 | 1009.0 |
| 20260507073125 | 61 | 119 | 0.0 | 0.0 | 0.00 | 0.06 | 0.00 | 91 | 1008.6 |
| 20260507071551 | 62 | 119 | 0.0 | 0.0 | 0.00 | 0.06 | 0.00 | 91 | 1008.5 |
| 20260507070050 | 62 | 127 | 0.0 | 0.0 | 0.00 | 0.06 | 0.00 | 92 | 1008.6 |
| 20260507064604 | 62 | 127 | 0.0 | 0.0 | 0.00 | 0.06 | 0.00 | 92 | 1008.6 |
| 20260507063056 | 63 | 127 | 0.0 | 0.0 | 0.00 | 0.06 | 0.00 | 92 | 1008.5 |
| 20260507061545 | 63 | 192 | 0.0 | 0.0 | 0.00 | 0.06 | 0.00 | 91 | 1008.5 |
| 20260507060044 | 63 | 192 | 0.0 | 0.0 | 0.00 | 0.06 | 0.00 | 91 | 1008.8 |
| 20260507054543 | 63 | 192 | 0.0 | 0.0 | 0.00 | 0.06 | 0.00 | 90 | 1009.3 |
| 20260507053043 | 64 | 192 | 0.0 | 0.0 | 0.00 | 0.06 | 0.00 | 88 | 1009.5 |
| 20260507051540 | 65 | 188 | 0.0 | 0.0 | 0.00 | 0.06 | 0.00 | 85 | 1008.9 |
| 20260507050036 | 64 | 236 | 0.0 | 2.0 | 0.00 | 0.06 | 0.00 | 86 | 1008.5 |
| 20260507044533 | 63 | 224 | 0.0 | 0.0 | 0.00 | 0.06 | 0.00 | 90 | 1008.2 |
| 20260507043032 | 63 | 191 | 0.0 | 0.0 | 0.00 | 0.06 | 0.00 | 90 | 1008.1 |
| 20260507041538 | 64 | 219 | 0.0 | 0.0 | 0.00 | 0.06 | 0.00 | 90 | 1008.3 |
| 20260507040026 | 64 | 219 | 0.0 | 0.0 | 0.00 | 0.06 | 0.00 | 90 | 1008.5 |
| 20260507034532 | 63 | 204 | 0.0 | 0.0 | 0.00 | 0.06 | 0.06 | 91 | 1009.2 |